Moses Lake, WA
on Wednesday, January 30, 2013

Wednesday
Previous Day Next Day
Daily Summary
 ActualAverageRecord
Temperature
Mean Temperature °F 32°F  
Max Temperature 55°F 39°F 55°F (2013)
Min Temperature 27°F 25°F -4°F (1980)
Degree Days
Heating Degree Days 24 33  
Month to date heating degree days 1115 1054  
Since 1 July heating degree days 3323 3641  
Cooling Degree Days 0 0  
Month to date cooling degree days 0 0  
Year to date cooling degree days 0 0  
Moisture
Dew Point 29°F   
Average Humidity 65    
Maximum Humidity 85    
Minimum Humidity 45    
Precipitation
Precipitation 0.00 in 0.02 in 0.35 in (1987)
Month to date precipitation 0.28 1.12  
Year to date precipitation 0.28 1.12  
Wind
Wind Speed 4 mph   
Max Wind Speed 10 mph   
Max Gust Speed 10 mph   
Visibility 10 miles   
Events     

Key: T is trace of precipitation, MM is missing value
Source: NWS Daily Summary
Time(PST)TemperatureDew PointHumidity Pressure Visibility Wind DirectionWind SpeedGust SpeedPrecipitationEvents Conditions
12:52 AM 30.0°F 27.0°F 88% 30.18 in 8.0 miles NNE 5.8 mph - N/A   Clear
1:52 AM 30.0°F 26.1°F 85% 30.18 in 10.0 miles Calm Calm - N/A   Clear
2:52 AM 32.0°F 27.0°F 82% 30.17 in 10.0 miles South 3.5 mph - N/A   Clear
3:52 AM 28.9°F 25.0°F 85% 30.17 in 10.0 miles South 4.6 mph - N/A   Clear
4:52 AM 28.0°F 24.1°F 85% 30.16 in 10.0 miles Variable 5.8 mph - N/A   Clear
5:52 AM 30.9°F 26.1°F 82% 30.16 in 10.0 miles South 5.8 mph - N/A   Clear
6:52 AM 32.0°F 27.0°F 82% 30.16 in 10.0 miles SSE 6.9 mph - N/A   Clear
7:52 AM 30.9°F 27.0°F 85% 30.17 in 10.0 miles SE 6.9 mph - N/A   Clear
8:52 AM 36.0°F 30.9°F 82% 30.19 in 10.0 miles Calm Calm - N/A   Clear
9:52 AM 41.0°F 33.1°F 73% 30.20 in 10.0 miles SSE 4.6 mph - N/A   Clear
10:52 AM 48.0°F 34.0°F 58% 30.20 in 10.0 miles South 4.6 mph - N/A   Clear
11:52 AM 51.1°F 35.1°F 54% 30.21 in 10.0 miles NW 3.5 mph - N/A   Clear
12:52 PM 53.1°F 32.0°F 45% 30.19 in 10.0 miles SW 5.8 mph - N/A   Clear
1:52 PM 54.0°F 32.0°F 43% 30.20 in 10.0 miles Calm Calm - N/A   Clear
2:52 PM 53.1°F 33.1°F 47% 30.20 in 10.0 miles Calm Calm - N/A   Clear
3:52 PM 48.9°F 34.0°F 56% 30.22 in 10.0 miles NNW 4.6 mph - N/A   Clear
4:52 PM 41.0°F 30.9°F 67% 30.23 in 10.0 miles North 5.8 mph - N/A   Clear
5:52 PM 37.0°F 30.0°F 76% 30.25 in 10.0 miles NNW 8.1 mph - N/A   Clear
6:52 PM 34.0°F 28.0°F 79% 30.25 in 10.0 miles NNE 4.6 mph - N/A   Clear
7:52 PM 33.1°F 28.0°F 82% 30.27 in 10.0 miles Calm Calm - N/A   Clear
8:52 PM 34.0°F 28.0°F 79% 30.26 in 10.0 miles Calm Calm - N/A   Clear
9:52 PM 32.0°F 28.0°F 85% 30.27 in 10.0 miles North 4.6 mph - N/A   Clear
10:52 PM 32.0°F 28.9°F 88% 30.25 in 10.0 miles Calm Calm - N/A   Clear
11:52 PM 33.1°F 28.0°F 82% 30.26 in 10.0 miles Calm Calm - N/A   Mostly Cloudy
Moon Phase
Jan. 30 Feb. 03 Feb. 10 Feb. 17 Feb. 25
Sunrise:07:24 AM (PST) Moon Rise:09:21 PM (PST)1/30
Sunset:04:57 PM (PST) Moon Set:08:36 AM (PST)1/30

Copyright © 2014 The Weather Underground, Inc.